Location: Palau
(42.3086°N, 3.1507°E)
Time: 12:38:12
(UTC+00:00)

Cosmos 2184 Rocket - Pass Details

Date: 26 May 2020
Orbit: 960 x 1001 km, 82.9° (Epoch: 13 July)

Event Time Altitude Azimuth Distance (km) Brightness Sun altitude
Exits shadow 02:51:56 12° 191° (SSW) 2,572 5.7 -13.2°
Maximum altitude 02:57:46 78° 278° (W) 988 4.0 -12.4°
Drops below altitude 10° 03:03:58 10° 5° (N) 2,704 7.1 -11.6°
Sets 03:06:29 0° 7° (N) 3,653 7.9 -11.3°
